SCP
0 0 0 0 0 0 0 0 0 0 0 1 2 2 2 2 2 2 4 6 8 10 10 10 8 7 6 6 5 5 5 4 3 3 2 2 2 1 1 1 1 1 1 1
0 0 0 0 0 0 0 0 0 0 1 1 2 2 3 2 2 3 4 6 7 8 9 8 8 7 6 6 5 4 4 4 3 2 2 2 2 1 1 1 0 0 0 1
0 0 0 0 0 1 1 1 1 1 1 2 3 3 2 2 2 3 4 5 6 7 7 8 8 7 6 5 4 3 3 3 2 2 3 2 2 1 1 1 0 0 0 0
0 0 0 0 0 1 2 2 1 2 3 4 3 2 2 2 2 3 3 4 5 7 7 8 8 7 6 5 3 3 2 2 2 3 3 3 2 2 1 1 1 0 0 0
0 0 0 0 0 1 2 2 3 3 4 4 3 2 1 1 2 2 3 4 6 8 9 9 9 7 5 4 3 3 2 1 2 3 3 3 3 2 2 1 1 1 1 1
0 0 0 0 0 1 2 3 3 3 4 3 3 2 1 1 1 2 2 4 6 9 10 10 9 8 5 4 3 3 2 2 2 3 3 3 3 2 2 2 2 2 1 1
0 0 0 0 1 1 2 2 2 2 2 2 2 1 1 1 1 2 2 4 6 8 10 11 11 8 6 4 3 3 3 3 3 3 3 3 2 2 2 2 2 2 2 1
0 0 0 0 1 1 2 2 2 2 2 2 1 1 1 1 2 2 3 4 5 7 10 11 10 8 6 4 3 3 4 4 4 3 2 1 1 1 2 2 2 2 2 2
0 0 0 0 1 1 1 1 1 1 2 2 2 2 2 2 3 4 4 4 4 6 8 8 8 6 4 3 3 3 3 3 2 2 1 1 1 1 1 2 2 2 2 2
0 0 0 0 1 1 1 1 1 1 2 2 2 2 2 2 4 5 5 4 4 5 6 5 5 4 3 2 2 2 2 1 1 1 1 1 1 1 1 1 2 2 2 2
0 0 0 1 1 1 1 1 1 1 2 2 2 2 2 2 3 4 4 4 3 3 3 3 3 2 2 2 2 2 2 1 1 1 1 1 1 1 1 1 1 1 2 2
0 0 1 1 1 1 1 1 1 1 2 2 2 2 2 2 2 2 2 2 2 2 2 2 2 2 2 2 2 2 2 2 1 1 1 1 1 1 1 1 1 1 1 1
0 0 1 1 1 1 1 1 1 1 2 2 2 2 1 1 1 1 1 1 1 1 1 1 1 1 1 1 1 1 1 1 1 1 2 2 2 2 2 1 1 0 0 0
0 0 0 1 1 1 1 1 1 1 1 2 1 1 1 1 1 1 0 0 0 0 0 0 0 0 0 0 1 1 1 1 1 2 2 2 2 3 3 2 2 1 0 0
0 0 0 1 1 1 1 1 1 1 1 1 1 1 0 0 0 0 0 0 0 0 0 0 1 1 1 1 0 0 1 1 1 2 2 3 3 3 3 3 2 2 1 0
0 0 0 1 1 1 1 1 1 1 1 1 1 0 0 0 0 0 0 0 0 1 1 1 1 1 1 1 1 1 1 1 1 2 2 3 3 3 3 3 3 2 1 1
0 0 0 0 1 1 1 1 1 1 1 1 1 0 0 0 0 0 0 0 0 1 1 1 1 1 2 2 1 1 1 1 1 1 2 2 3 3 3 3 3 2 2 1
0 0 0 0 0 1 0 0 0 0 0 1 0 0 0 0 0 0 0 0 0 0 0 0 1 1 2 2 2 2 1 1 1 1 1 2 2 3 4 3 3 2 2 2
0 0 0 0 1 0 0 0 0 0 0 0 0 0 0 0 0 0 0 0 0 0 0 0 0 1 1 2 2 2 2 1 1 1 1 1 2 3 3 3 3 2 2 2
0 0 0 0 0 0 0 0 0 0 0 0 0 0 0 0 0 0 0 0 0 0 0 0 0 0 1 1 2 2 2 2 1 1 1 1 1 2 2 2 2 2 2 1
0 0 0 0 0 0 0 0 0 0 0 0 0 0 0 0 0 0 0 0 0 0 0 0 0 0 0 1 1 2 2 2 2 1 1 1 1 1 1 1 1 1 1 1
0 0 0 0 0 0 0 0 0 0 0 0 0 0 0 0 0 0 0 0 0 0 0 0 0 0 0 1 1 2 2 2 2 2 2 1 1 0 0 0 0 1 1 1
0 0 0 0 0 0 0 0 0 0 0 0 0 0 0 0 0 0 0 0 0 0 0 0 0 0 0 1 1 2 2 3 2 2 2 1 1 0 0 0 0 1 1 1
0 0 0 0 0 0 0 0 0 0 0 0 0 0 0 0 0 0 0 0 0 0 0 0 0 0 0 1 1 2 3 3 3 2 2 1 1 0 0 0 0 0 1 1
0 0 0 0 0 0 0 0 0 0 0 0 0 0 0 0 0 0 0 0 1 0 0 0 0 0 0 1 2 3 3 3 3 2 1 1 0 0 0 0 0 0 0 1
0 0 0 0 0 0 0 0 0 0 0 0 0 0 0 0 0 0 0 1 1 1 1 1 0 0 0 1 2 3 4 3 2 1 1 0 0 0 0 0 0 0 0 0
0 0 0 0 0 0 0 0 0 0 0 0 0 0 0 0 0 0 0 1 1 1 1 1 1 0 0 1 2 3 3 3 2 1 0 0 0 0 0 0 0 0 0 0
Wind_Speed
4 4 3 3 4 4 5 7 7 7 7 7 5 4 3 1 1 1 1 1 1 1 1 1 2 2 2 3 3 3 4 4 3 3 2 2 2 2 1 1 1 1 1 1
2 2 2 3 4 4 4 4 4 3 5 5 3 1 1 1 2 1 1 1 2 2 2 2 2 3 3 3 3 3 3 3 2 3 3 2 2 2 2 1 1 1 1 1
3 3 2 4 5 4 3 3 5 6 7 2 1 3 4 4 3 3 2 2 2 3 4 3 3 3 3 3 3 3 3 3 2 3 3 2 2 2 1 1 1 1 1 1
1 1 4 7 2 3 3 2 3 4 4 4 4 3 3 3 4 3 2 2 2 3 3 3 3 2 2 3 4 3 2 2 2 3 3 2 2 2 1 1 1 1 0 0
2 2 5 5 2 1 2 3 2 3 2 1 1 2 2 1 2 3 3 2 2 2 3 3 3 3 4 3 3 3 2 2 2 2 3 2 2 2 1 1 1 0 0 0
3 2 5 5 3 2 2 4 3 3 3 2 3 1 4 2 1 1 0 1 1 2 3 4 3 4 4 3 3 2 2 2 2 2 3 3 3 2 1 1 1 1 0 0
3 3 7 5 5 1 3 6 3 3 3 4 4 5 4 1 1 1 0 1 2 4 3 3 4 4 4 3 2 2 2 1 2 2 2 2 1 1 1 2 1 1 1 1
3 3 7 3 2 2 5 3 2 3 3 4 3 2 0 1 1 1 1 2 3 3 3 2 3 4 3 2 2 2 2 2 1 1 1 1 1 1 1 2 2 1 1 1
6 6 4 2 2 3 2 3 3 3 3 3 2 2 1 1 1 1 1 2 3 3 3 2 2 3 3 1 1 2 2 2 1 1 1 1 1 1 1 1 1 1 1 1
3 6 5 5 4 3 2 3 4 3 2 3 3 2 2 1 1 1 1 1 2 3 3 2 1 2 2 2 2 3 3 2 1 1 1 2 1 1 1 1 1 1 1 2
4 5 4 5 3 3 4 4 3 2 0 2 3 3 2 2 2 1 1 1 2 2 3 2 2 1 1 2 3 2 2 2 1 1 1 1 1 0 1 1 2 3 2 2
6 5 3 5 4 3 3 3 2 1 2 1 2 3 2 1 1 1 1 2 2 2 2 2 2 1 1 2 3 3 2 1 1 1 1 1 1 1 2 0 0 2 2 2
5 4 4 5 4 3 3 3 2 1 0 1 1 2 2 1 1 1 1 2 3 3 3 2 2 1 1 2 3 3 2 2 1 1 1 1 1 1 1 2 2 1 2 3
4 2 3 3 4 4 3 3 1 1 2 1 1 2 2 1 1 1 1 2 3 2 2 2 2 1 2 2 3 2 2 2 2 2 2 1 1 1 1 1 2 2 2 2
4 4 5 4 3 3 1 0 2 2 2 2 1 1 1 1 0 1 1 1 2 2 2 2 2 2 1 2 3 3 2 2 2 2 2 2 2 1 2 2 2 2 1 1
3 3 3 2 3 2 0 1 1 1 0 1 0 0 1 1 1 1 1 2 3 3 3 3 2 2 2 3 3 2 2 3 2 2 2 2 2 2 2 2 2 2 2 1
2 3 3 3 3 2 2 1 2 2 1 1 1 0 0 1 1 1 1 2 3 3 2 2 3 2 2 3 3 2 2 2 3 2 2 2 2 2 2 2 2 2 2 1
4 5 4 4 4 3 2 1 1 1 2 2 1 1 1 1 1 2 2 1 1 0 1 2 2 2 2 3 3 3 3 2 2 3 2 2 2 2 2 2 2 2 2 1
3 3 2 2 2 2 2 1 1 2 2 1 2 2 2 1 1 1 1 1 1 1 3 2 1 2 2 2 3 2 3 3 2 2 2 2 2 2 2 2 2 2 2 1
2 2 1 1 1 2 2 1 1 1 1 1 1 1 1 1 1 1 1 1 2 2 2 1 0 0 1 1 2 2 3 3 3 2 2 2 2 2 2 2 2 2 2 2
1 1 0 1 1 0 1 1 1 0 1 0 1 1 1 1 1 1 1 1 2 1 1 0 0 0 1 1 1 2 2 2 2 2 2 2 2 2 2 2 2 3 3 3
1 1 1 1 1 0 0 1 1 1 0 1 1 1 1 1 1 1 1 1 2 1 0 0 0 1 1 1 1 1 2 2 2 2 2 2 2 2 2 3 3 3 3 3
1 1 1 1 0 0 1 1 1 1 0 0 0 1 1 1 1 1 1 1 1 0 0 0 0 1 1 0 1 1 2 2 2 2 2 3 3 3 3 3 3 3 3 3
1 2 2 1 2 2 2 2 1 1 0 1 1 1 1 1 1 1 1 1 0 0 0 0 0 1 0 0 0 1 1 1 2 2 2 2 2 2 3 3 3 3 3 3
2 2 2 3 2 1 0 1 1 1 1 1 2 2 1 1 1 1 1 1 1 1 0 1 1 1 0 0 0 0 1 1 1 1 1 2 2 2 2 2 2 2 2 2
2 1 1 1 0 0 0 0 0 1 1 1 2 2 1 1 1 1 1 1 1 1 0 0 0 0 1 0 0 0 0 1 1 1 1 2 2 2 2 2 2 2 2 2
1 1 1 2 2 1 1 1 0 0 0 0 1 2 1 1 0 0 0 0 0 1 0 0 0 0 0 0 0 0 0 1 1 1 1 1 1 2 2 1 1 1 1 1
Wind_Direction
238 247 224 229 232 195 186 185 188 219 220 243 245 243 250 240 153 105 104 107 152 167 162 148 144 143 146 143 139 144 150 162 173 164 152 147 138 141 146 151 157 178 183 196
296 275 258 259 252 220 211 196 204 218 244 248 246 202 250 215 171 162 199 213 197 173 156 152 162 161 152 153 153 149 154 163 160 150 145 144 139 137 130 123 113 113 155 180
275 303 333 268 238 210 202 207 183 208 233 232 217 227 220 209 194 197 216 224 197 182 178 179 177 170 171 163 150 148 152 152 149 150 151 153 151 131 132 130 116 121 183 181
230 23 231 247 247 195 187 230 221 225 225 195 207 231 224 190 187 205 212 211 210 190 177 173 167 154 145 131 133 135 131 138 157 158 159 160 152 157 166 154 154 170 178 178
137 209 272 290 294 166 183 262 240 212 231 184 101 53 327 254 198 209 209 204 206 191 171 154 158 154 132 126 135 135 145 163 166 165 167 168 181 190 176 153 164 201 241 137
143 183 236 253 287 281 148 268 267 197 208 174 107 136 260 266 271 270 235 161 162 146 140 145 155 141 131 133 137 155 180 189 177 169 170 187 201 195 163 150 173 138 56 47
174 217 259 272 300 19 166 244 276 214 204 177 182 213 244 249 285 268 142 124 136 136 145 156 150 139 137 145 172 194 179 161 150 164 175 176 178 174 152 138 114 100 75 10
163 197 255 311 18 182 235 273 262 226 204 191 212 232 209 159 172 172 90 94 121 128 128 126 134 135 139 167 186 158 142 136 127 122 145 123 130 151 142 138 131 126 80 356
194 217 252 265 238 271 275 280 274 246 234 189 199 221 188 148 169 180 121 118 115 121 114 100 115 128 140 181 152 134 129 131 121 91 64 90 139 148 130 139 156 182 187 251
255 266 274 292 293 300 299 290 294 280 240 182 177 183 163 160 170 145 118 119 112 120 125 124 110 118 146 146 130 135 144 144 129 115 83 70 77 135 143 168 183 203 213 231
260 278 309 312 307 312 320 325 335 354 291 186 164 177 175 171 187 173 146 135 129 143 153 163 147 126 123 123 128 148 154 148 143 141 121 86 59 6 200 220 198 197 221 215
236 244 226 273 293 309 306 309 319 352 1 355 168 170 150 149 163 156 152 133 138 149 159 173 149 149 150 138 138 151 158 171 170 159 150 155 147 6 11 310 224 211 221 209
237 259 246 268 293 294 274 274 282 267 176 24 36 112 122 126 140 149 138 141 167 180 184 178 150 161 194 149 144 160 186 195 179 176 183 189 190 192 308 343 337 260 250 242
250 263 281 276 280 291 289 282 314 46 51 68 75 80 92 95 106 148 180 205 194 170 171 167 156 211 220 161 155 176 196 193 182 192 200 199 204 216 225 245 294 308 287 250
259 238 243 261 287 297 301 14 68 57 53 46 60 86 99 103 131 247 241 190 153 146 155 155 169 239 218 166 170 189 194 194 190 202 204 204 213 222 232 239 248 275 304 345
278 274 268 274 280 280 287 152 148 204 129 89 59 109 185 174 220 247 232 152 147 182 197 187 207 233 193 176 184 191 195 200 195 197 204 205 209 215 230 239 249 261 266 270
283 287 283 279 265 251 248 234 201 209 210 202 223 226 95 84 11 295 252 202 178 194 197 189 218 232 192 183 183 192 198 205 201 194 202 209 212 215 219 226 238 254 261 251
242 250 250 238 227 226 235 236 222 227 232 228 186 148 150 168 230 249 247 195 127 342 290 248 232 219 206 197 191 194 196 198 201 202 209 214 219 220 215 220 232 246 262 255
280 280 272 247 210 186 199 216 233 249 253 212 176 190 201 204 219 237 180 143 156 249 282 279 233 202 218 219 198 189 191 195 195 200 200 199 206 211 211 223 236 245 246 240
296 294 295 291 158 158 182 207 212 255 263 207 176 185 199 214 208 202 169 189 235 245 256 266 207 175 221 221 190 182 187 190 191 194 193 190 198 214 218 222 229 232 236 240
302 306 103 70 67 97 187 182 157 238 314 235 173 198 220 229 190 156 141 242 289 296 297 301 143 224 242 219 169 172 175 181 190 194 192 191 198 216 228 231 235 233 234 236
333 360 49 74 82 354 319 133 152 166 66 51 79 138 154 174 155 121 161 221 256 299 70 129 224 248 250 222 179 176 177 185 192 199 203 199 204 219 233 234 237 237 239 242
11 40 45 17 315 313 20 40 76 118 92 357 229 204 192 208 182 155 252 272 247 301 93 171 250 265 281 172 171 183 192 200 206 212 221 217 217 223 233 243 245 239 237 240
45 49 35 22 52 63 26 348 -0 6 356 302 285 244 192 177 299 263 231 276 317 245 189 276 322 325 308 124 130 176 208 215 216 220 231 235 232 232 239 246 252 244 237 239
48 47 44 51 57 43 342 13 27 18 21 8 350 342 312 199 210 249 243 224 204 168 217 327 352 352 104 125 161 216 243 230 223 223 233 243 244 243 248 255 253 246 244 243
39 20 6 29 79 295 358 82 49 347 22 4 338 333 329 307 236 236 224 210 168 134 141 285 320 151 157 166 174 205 264 273 261 249 251 251 248 243 247 250 240 237 239 242
33 26 30 20 8 6 30 75 80 305 279 225 310 317 317 323 340 301 176 179 167 159 172 213 131 129 147 157 335 327 301 280 260 254 264 265 257 249 247 232 221 215 236 251